Terug naar catalogus

COSMOS 87

ActiefMilitairLEO
NORAD 1585·PAYLOAD·🇷🇺 Russia

Gelanceerd Sep 18, 1965 vanaf Baikonur Cosmodrome

Loading…

Volgende Passages (komende 24 uur)

TLE

VersSource: Space-Track

Epoch: Sep 14, 2026, 10:54 UTC

1 01585U 65073B   26257.45464677 -.00000107  00000-0 -74150-4 0  9996
2 01585  56.0619  43.8283 0205392 146.3697 249.1781 12.47464405776899

Volg COSMOS 87 in realtime met AllMySat

Download on the App Store